When you browse on this site, cookies collect data to enhance your experience and personalize the content and advertising you see.
Visit our Privacy Policy to learn more. By continuing to use the site, you agree to this use of cookies and data.
  • In Deutschland
  • Länderverzeichnis
  • Für 7 Tage
  • Wassertemperatur
  • Wetterkarte
  • Widgets
  • user-avatar
    Anmelden

    Stündliche Wetter Kchulna

    Heute, 25 Januar, Samstag

    Zeit Temperatur Niederschläge Wind Luftdruck Luftfeuchtigkeit
    00:00 +16°C° 0 mm 1 m/S 761 mmHg 40%
    01:00 +15°C° 0 mm 1 m/S 761 mmHg 42%
    02:00 +15°C° 0 mm 1 m/S 760 mmHg 45%
    03:00 +14°C° 0 mm 1 m/S 760 mmHg 47%
    04:00 +14°C° 0 mm 1 m/S 760 mmHg 50%
    05:00 +14°C° 0 mm 1 m/S 760 mmHg 52%
    06:00 +13°C° 0 mm 1 m/S 760 mmHg 55%
    07:00 +15°C° 0 mm 1 m/S 761 mmHg 50%
    08:00 +18°C° 0 mm 1 m/S 761 mmHg 46%
    09:00 +20°C° 0 mm 1 m/S 762 mmHg 41%
    10:00 +21°C° 0 mm 2 m/S 762 mmHg 36%
    11:00 +24°C° 0 mm 2 m/S 761 mmHg 30%
    12:00 +26°C° 0 mm 3 m/S 761 mmHg 25%
    13:00 +26°C° 0 mm 3 m/S 760 mmHg 24%
    14:00 +27°C° 0 mm 3 m/S 759 mmHg 23%
    15:00 +27°C° 0 mm 3 m/S 758 mmHg 22%
    16:00 +25°C° 0 mm 3 m/S 758 mmHg 25%
    17:00 +24°C° 0 mm 3 m/S 758 mmHg 29%
    18:00 +20°C° 0 mm 2 m/S 759 mmHg 34%
    19:00 +19°C° 0 mm 2 m/S 759 mmHg 36%
    20:00 +19°C° 0 mm 2 m/S 759 mmHg 39%
    21:00 +18°C° 0 mm 2 m/S 760 mmHg 42%
    22:00 +18°C° 0 mm 1 m/S 759 mmHg 44%
    23:00 +16°C° 0 mm 1 m/S 759 mmHg 45%

    Morgen, 26 Januar, Sonntag

    Zeit Temperatur Niederschläge Wind Luftdruck Luftfeuchtigkeit
    00:00 +16°C° 0 mm 1 m/S 759 mmHg 47%
    01:00 +15°C° 0 mm 1 m/S 759 mmHg 48%
    02:00 +14°C° 0 mm 0 m/S 758 mmHg 50%
    03:00 +13°C° 0 mm 0 m/S 758 mmHg 52%
    04:00 +13°C° 0 mm 0 m/S 758 mmHg 52%
    05:00 +13°C° 0 mm 0 m/S 758 mmHg 53%
    06:00 +14°C° 0 mm 1 m/S 758 mmHg 53%
    07:00 +16°C° 0 mm 1 m/S 759 mmHg 48%
    08:00 +19°C° 0 mm 1 m/S 760 mmHg 43%
    09:00 +21°C° 0 mm 1 m/S 761 mmHg 38%
    10:00 +21°C° 0 mm 2 m/S 760 mmHg 34%
    11:00 +24°C° 0 mm 2 m/S 760 mmHg 30%
    12:00 +26°C° 0 mm 2 m/S 759 mmHg 26%
    13:00 +27°C° 0 mm 3 m/S 759 mmHg 25%
    14:00 +27°C° 0 mm 3 m/S 758 mmHg 23%
    15:00 +28°C° 0 mm 3 m/S 757 mmHg 22%
    16:00 +26°C° 0 mm 3 m/S 757 mmHg 25%
    17:00 +24°C° 0 mm 3 m/S 757 mmHg 29%
    18:00 +23°C° 0 mm 2 m/S 757 mmHg 32%
    19:00 +20°C° 0 mm 2 m/S 757 mmHg 36%
    20:00 +19°C° 0 mm 2 m/S 758 mmHg 40%
    21:00 +19°C° 0 mm 1 m/S 758 mmHg 44%
    22:00 +18°C° 0 mm 1 m/S 758 mmHg 47%
    23:00 +18°C° 0 mm 1 m/S 758 mmHg 50%

    übermorgen, 27 Januar, Montag

    Zeit Temperatur Niederschläge Wind Luftdruck Luftfeuchtigkeit
    00:00 +15°C° 0 mm 0 m/S 758 mmHg 53%
    01:00 +15°C° 0 mm 0 m/S 758 mmHg 53%
    02:00 +16°C° 0 mm 1 m/S 757 mmHg 52%
    03:00 +15°C° 0 mm 1 m/S 757 mmHg 51%
    04:00 +15°C° 0 mm 1 m/S 757 mmHg 53%
    05:00 +15°C° 0 mm 1 m/S 757 mmHg 54%
    06:00 +15°C° 0 mm 1 m/S 758 mmHg 55%
    07:00 +17°C° 0 mm 2 m/S 758 mmHg 51%
    08:00 +18°C° 0 mm 2 m/S 759 mmHg 48%
    09:00 +20°C° 0 mm 2 m/S 760 mmHg 44%
    10:00 +22°C° 0 mm 3 m/S 759 mmHg 40%
    11:00 +24°C° 0 mm 3 m/S 759 mmHg 36%
    12:00 +26°C° 0 mm 4 m/S 759 mmHg 32%
    13:00 +27°C° 0 mm 4 m/S 758 mmHg 31%
    14:00 +27°C° 0 mm 4 m/S 757 mmHg 29%
    15:00 +28°C° 0 mm 4 m/S 756 mmHg 28%
    16:00 +26°C° 0 mm 4 m/S 756 mmHg 31%
    17:00 +24°C° 0 mm 3 m/S 756 mmHg 35%
    18:00 +23°C° 0 mm 2 m/S 757 mmHg 39%
    19:00 +21°C° 0 mm 2 m/S 757 mmHg 41%
    20:00 +20°C° 0 mm 2 m/S 757 mmHg 44%
    21:00 +20°C° 0 mm 1 m/S 758 mmHg 46%
    22:00 +19°C° 0 mm 1 m/S 758 mmHg 48%
    23:00 +19°C° 0 mm 1 m/S 758 mmHg 50%

    28 Januar, Dienstag

    Zeit Temperatur Niederschläge Wind Luftdruck Luftfeuchtigkeit
    00:00 +18°C° 0 mm 1 m/S 758 mmHg 51%
    01:00 +18°C° 0 mm 1 m/S 757 mmHg 53%
    02:00 +16°C° 0 mm 1 m/S 757 mmHg 54%
    03:00 +16°C° 0 mm 1 m/S 756 mmHg 56%
    04:00 +15°C° 0 mm 0 m/S 757 mmHg 57%
    05:00 +14°C° 0 mm 0 m/S 757 mmHg 58%
    06:00 +14°C° 0 mm 0 m/S 757 mmHg 59%
    07:00 +16°C° 0 mm 0 m/S 758 mmHg 53%
    08:00 +18°C° 0 mm 0 m/S 759 mmHg 47%
    09:00 +22°C° 0 mm 1 m/S 759 mmHg 42%
    10:00 +24°C° 0 mm 1 m/S 759 mmHg 37%
    11:00 +26°C° 0 mm 2 m/S 759 mmHg 32%
    12:00 +28°C° 0 mm 2 m/S 759 mmHg 27%
    13:00 +29°C° 0 mm 2 m/S 758 mmHg 25%
    14:00 +29°C° 0 mm 3 m/S 758 mmHg 24%
    15:00 +30°C° 0 mm 3 m/S 757 mmHg 23%
    16:00 +28°C° 0 mm 2 m/S 757 mmHg 27%
    17:00 +27°C° 0 mm 2 m/S 757 mmHg 30%
    18:00 +25°C° 0 mm 2 m/S 757 mmHg 34%
    19:00 +24°C° 0 mm 2 m/S 758 mmHg 38%
    20:00 +21°C° 0 mm 2 m/S 758 mmHg 42%
    21:00 +20°C° 0 mm 2 m/S 759 mmHg 47%
    22:00 +19°C° 0 mm 2 m/S 759 mmHg 52%
    23:00 +19°C° 0 mm 2 m/S 759 mmHg 57%

    29 Januar, Mittwoch

    Zeit Temperatur Niederschläge Wind Luftdruck Luftfeuchtigkeit
    00:00 +18°C° 0 mm 2 m/S 759 mmHg 63%
    01:00 +18°C° 0 mm 2 m/S 759 mmHg 66%
    02:00 +18°C° 0 mm 2 m/S 759 mmHg 69%
    03:00 +19°C° 0 mm 1 m/S 759 mmHg 72%
    04:00 +18°C° 0 mm 1 m/S 759 mmHg 74%
    05:00 +18°C° 0 mm 1 m/S 759 mmHg 75%
    06:00 +16°C° 0 mm 0 m/S 759 mmHg 77%
    07:00 +20°C° 0 mm 1 m/S 760 mmHg 69%
    08:00 +22°C° 0 mm 1 m/S 760 mmHg 62%
    09:00 +24°C° 0 mm 1 m/S 761 mmHg 54%
    10:00 +26°C° 0 mm 1 m/S 760 mmHg 48%
    11:00 +28°C° 0 mm 1 m/S 760 mmHg 42%
    12:00 +30°C° 0 mm 2 m/S 760 mmHg 36%
    13:00 +30°C° 0 mm 2 m/S 760 mmHg 38%
    14:00 +30°C° 0 mm 2 m/S 759 mmHg 39%
    15:00 +30°C° 0 mm 2 m/S 758 mmHg 40%
    16:00 +29°C° 0.2 mm 3 m/S 758 mmHg 48%
    17:00 +27°C° 0.2 mm 3 m/S 758 mmHg 55%
    18:00 +26°C° 0.2 mm 4 m/S 758 mmHg 62%
    19:00 +25°C° 0.2 mm 4 m/S 758 mmHg 64%
    20:00 +24°C° 0.2 mm 3 m/S 759 mmHg 66%
    21:00 +22°C° 0.2 mm 3 m/S 759 mmHg 69%
    22:00 +21°C° 0 mm 3 m/S 759 mmHg 69%
    23:00 +21°C° 0 mm 3 m/S 759 mmHg 69%

    30 Januar, Donnerstag

    Zeit Temperatur Niederschläge Wind Luftdruck Luftfeuchtigkeit
    00:00 +21°C° 0 mm 2 m/S 759 mmHg 68%
    01:00 +21°C° 0.4 mm 2 m/S 758 mmHg 73%
    02:00 +20°C° 0.4 mm 2 m/S 758 mmHg 77%
    03:00 +21°C° 0.4 mm 1 m/S 758 mmHg 81%
    04:00 +20°C° 0.5 mm 1 m/S 758 mmHg 83%
    05:00 +19°C° 0.5 mm 2 m/S 758 mmHg 84%
    06:00 +19°C° 0.5 mm 2 m/S 758 mmHg 86%
    07:00 +21°C° 0.4 mm 2 m/S 758 mmHg 81%
    08:00 +23°C° 0.4 mm 2 m/S 759 mmHg 76%
    09:00 +25°C° 0.4 mm 2 m/S 760 mmHg 71%
    10:00 +27°C° 0.2 mm 2 m/S 759 mmHg 62%
    11:00 +29°C° 0.2 mm 2 m/S 759 mmHg 52%
    12:00 +31°C° 0.2 mm 2 m/S 758 mmHg 43%
    13:00 +31°C° 0.1 mm 2 m/S 758 mmHg 45%
    14:00 +30°C° 0.1 mm 2 m/S 757 mmHg 47%
    15:00 +30°C° 0.1 mm 2 m/S 756 mmHg 48%
    16:00 +28°C° 0.3 mm 2 m/S 756 mmHg 54%
    17:00 +27°C° 0.3 mm 2 m/S 756 mmHg 61%
    18:00 +26°C° 0.3 mm 2 m/S 756 mmHg 67%
    19:00 +25°C° 0 mm 2 m/S 757 mmHg 70%
    20:00 +24°C° 0 mm 1 m/S 757 mmHg 73%
    21:00 +24°C° 0 mm 1 m/S 758 mmHg 76%
    22:00 +23°C° 0 mm 1 m/S 758 mmHg 78%
    23:00 +23°C° 0 mm 1 m/S 758 mmHg 79%
    Mehr zeigen